Time,TemperatureF,DewpointF,PressureIn,WindDirection,WindDirectionDegrees,WindSpeedMPH,WindSpeedGustMPH,Humidity,HourlyPrecipIn,Conditions,Clouds,dailyrainin,SoftwareType,DateUTC
2013-05-20 00:01:00,44.1,25.7,17.73,NW,311,6.0,11.0,29,-99.99,,,-99.99,meteohub,2013-05-20 06:01:00,
2013-05-20 00:06:00,44.1,25.9,17.73,West,277,8.0,11.0,29,-99.99,,,-99.99,meteohub,2013-05-20 06:06:00,
2013-05-20 00:11:00,44.1,25.7,17.73,WNW,293,5.0,11.0,29,-99.99,,,-99.99,meteohub,2013-05-20 06:11:00,
2013-05-20 00:16:00,44.1,25.7,17.73,WNW,282,10.0,11.0,29,-99.99,,,-99.99,meteohub,2013-05-20 06:16:00,
2013-05-20 00:22:00,44.1,25.5,17.73,NNW,330,8.0,13.0,29,-99.99,,,-99.99,meteohub,2013-05-20 06:22:00,
2013-05-20 00:27:00,44.1,25.5,17.73,WNW,292,6.0,13.0,29,-99.99,,,-99.99,meteohub,2013-05-20 06:27:00,
2013-05-20 00:32:00,44.1,25.3,17.73,NW,309,6.0,15.0,29,-99.99,,,-99.99,meteohub,2013-05-20 06:32:00,
2013-05-20 00:37:00,44.1,25.3,17.73,WNW,303,5.0,15.0,29,-99.99,,,-99.99,meteohub,2013-05-20 06:37:00,
2013-05-20 00:42:00,43.9,25.2,17.73,NW,317,9.0,15.0,29,-99.99,,,-99.99,meteohub,2013-05-20 06:42:00,
2013-05-20 00:47:00,43.9,25.2,17.73,WNW,293,5.0,13.0,29,-99.99,,,-99.99,meteohub,2013-05-20 06:47:00,
2013-05-20 00:52:00,43.9,25.2,17.73,WNW,297,6.0,13.0,29,-99.99,,,-99.99,meteohub,2013-05-20 06:52:00,
2013-05-20 00:57:00,43.9,25.5,17.73,West,275,7.0,12.0,29,-99.99,,,-99.99,meteohub,2013-05-20 06:57:00,
2013-05-20 01:02:00,43.7,25.9,17.73,WNW,283,9.0,12.0,29,-99.99,,,-99.99,meteohub,2013-05-20 07:02:00,
2013-05-20 01:07:00,43.7,25.7,17.73,NW,308,10.0,13.0,29,-99.99,,,-99.99,meteohub,2013-05-20 07:07:00,
2013-05-20 01:12:00,43.7,25.7,17.73,WNW,300,12.0,13.0,29,-99.99,,,-99.99,meteohub,2013-05-20 07:12:00,
2013-05-20 01:17:00,43.7,25.5,17.73,WNW,295,9.0,15.0,29,-99.99,,,-99.99,meteohub,2013-05-20 07:17:00,
2013-05-20 01:22:00,43.7,25.5,17.73,WNW,288,5.0,15.0,29,-99.99,,,-99.99,meteohub,2013-05-20 07:22:00,
2013-05-20 01:27:00,43.5,25.3,17.73,WSW,256,5.0,15.0,29,-99.99,,,-99.99,meteohub,2013-05-20 07:27:00,
2013-05-20 01:32:00,43.5,25.3,17.73,NW,308,6.0,15.0,29,-99.99,,,-99.99,meteohub,2013-05-20 07:32:00,
2013-05-20 01:37:00,43.3,25.2,17.73,WNW,300,5.0,7.0,29,-99.99,,,-99.99,meteohub,2013-05-20 07:37:00,
2013-05-20 01:42:00,43.3,25.2,17.73,NW,306,6.0,7.0,29,-99.99,,,-99.99,meteohub,2013-05-20 07:42:00,
2013-05-20 01:47:00,43.2,25.2,17.73,WNW,302,3.0,9.0,29,-99.99,,,-99.99,meteohub,2013-05-20 07:47:00,
2013-05-20 01:52:00,43.0,25.7,17.73,WNW,285,4.0,9.0,29,-99.99,,,-99.99,meteohub,2013-05-20 07:52:00,
2013-05-20 01:57:00,43.0,25.9,17.73,WNW,289,3.0,9.0,29,-99.99,,,-99.99,meteohub,2013-05-20 07:57:00,
2013-05-20 02:03:00,42.8,25.7,17.73,North,4,0.0,8.0,29,-99.99,,,-99.99,meteohub,2013-05-20 08:03:00,
2013-05-20 02:08:00,42.8,24.8,17.73,West,268,3.0,8.0,28,-99.99,,,-99.99,meteohub,2013-05-20 08:08:00,
2013-05-20 02:13:00,42.4,25.7,17.73,WNW,300,8.0,8.0,29,-99.99,,,-99.99,meteohub,2013-05-20 08:13:00,
2013-05-20 02:18:00,42.4,25.5,17.73,NW,309,4.0,8.0,29,-99.99,,,-99.99,meteohub,2013-05-20 08:18:00,
2013-05-20 02:23:00,42.6,25.5,17.73,West,265,5.0,9.0,29,-99.99,,,-99.99,meteohub,2013-05-20 08:23:00,
2013-05-20 02:29:00,42.8,25.3,17.73,NW,312,11.0,11.0,29,-99.99,,,-99.99,meteohub,2013-05-20 08:29:00,
2013-05-20 02:34:00,42.8,25.3,17.73,NW,316,14.0,15.0,29,-99.99,,,-99.99,meteohub,2013-05-20 08:34:00,
2013-05-20 02:39:00,42.8,25.2,17.73,WNW,295,9.0,15.0,29,-99.99,,,-99.99,meteohub,2013-05-20 08:39:00,
2013-05-20 02:44:00,42.6,25.2,17.73,WNW,298,12.0,15.0,29,-99.99,,,-99.99,meteohub,2013-05-20 08:44:00,
2013-05-20 02:49:00,42.6,25.0,17.73,NW,308,8.0,14.0,29,-99.99,,,-99.99,meteohub,2013-05-20 08:49:00,
2013-05-20 02:55:00,42.4,25.5,17.73,WNW,287,6.0,13.0,29,-99.99,,,-99.99,meteohub,2013-05-20 08:55:00,
2013-05-20 03:00:00,42.4,25.9,17.73,WNW,303,5.0,13.0,29,-99.99,,,-99.99,meteohub,2013-05-20 09:00:00,
2013-05-20 03:05:00,42.4,25.9,17.73,WNW,299,8.0,11.0,29,-99.99,,,-99.99,meteohub,2013-05-20 09:05:00,
2013-05-20 03:10:00,42.6,25.9,17.73,WNW,303,6.0,11.0,29,-99.99,,,-99.99,meteohub,2013-05-20 09:10:00,
2013-05-20 03:15:00,42.4,25.7,17.73,WNW,303,6.0,13.0,29,-99.99,,,-99.99,meteohub,2013-05-20 09:15:00,
2013-05-20 03:20:00,42.6,25.5,17.73,NW,308,6.0,13.0,29,-99.99,,,-99.99,meteohub,2013-05-20 09:20:00,
2013-05-20 03:26:00,42.8,25.5,17.73,WNW,297,10.0,13.0,29,-99.99,,,-99.99,meteohub,2013-05-20 09:26:00,
2013-05-20 03:31:00,42.8,25.3,17.73,WNW,286,6.0,13.0,29,-99.99,,,-99.99,meteohub,2013-05-20 09:31:00,
2013-05-20 03:36:00,42.6,25.2,17.73,NW,314,8.0,12.0,29,-99.99,,,-99.99,meteohub,2013-05-20 09:36:00,
2013-05-20 03:41:00,42.6,25.2,17.73,NW,319,12.0,12.0,29,-99.99,,,-99.99,meteohub,2013-05-20 09:41:00,
2013-05-20 03:46:00,42.8,25.2,17.73,West,271,6.0,13.0,29,-99.99,,,-99.99,meteohub,2013-05-20 09:46:00,
2013-05-20 03:52:00,42.8,25.9,17.73,NW,314,9.0,13.0,29,-99.99,,,-99.99,meteohub,2013-05-20 09:52:00,
2013-05-20 03:57:00,42.8,25.9,17.73,NW,305,6.0,13.0,29,-99.99,,,-99.99,meteohub,2013-05-20 09:57:00,
2013-05-20 04:02:00,42.8,25.7,17.73,NNW,339,10.0,13.0,29,-99.99,,,-99.99,meteohub,2013-05-20 10:02:00,
2013-05-20 04:07:00,42.8,25.5,17.73,WNW,286,6.0,11.0,29,-99.99,,,-99.99,meteohub,2013-05-20 10:07:00,
2013-05-20 04:12:00,42.6,25.5,17.73,WNW,295,5.0,11.0,29,-99.99,,,-99.99,meteohub,2013-05-20 10:12:00,
2013-05-20 04:17:00,42.4,25.3,17.73,WNW,289,9.0,11.0,29,-99.99,,,-99.99,meteohub,2013-05-20 10:17:00,
2013-05-20 04:23:00,42.6,25.3,17.73,WNW,302,9.0,12.0,29,-99.99,,,-99.99,meteohub,2013-05-20 10:23:00,
2013-05-20 04:28:00,42.8,25.2,17.73,WNW,301,11.0,12.0,29,-99.99,,,-99.99,meteohub,2013-05-20 10:28:00,
2013-05-20 04:33:00,42.8,25.2,17.73,WNW,301,11.0,13.0,29,-99.99,,,-99.99,meteohub,2013-05-20 10:33:00,
2013-05-20 04:38:00,42.8,25.7,17.73,WNW,283,8.0,16.0,29,-99.99,,,-99.99,meteohub,2013-05-20 10:38:00,
2013-05-20 04:43:00,42.8,25.9,17.73,WNW,303,8.0,16.0,29,-99.99,,,-99.99,meteohub,2013-05-20 10:43:00,
2013-05-20 04:49:00,42.4,25.7,17.73,NW,314,6.0,16.0,29,-99.99,,,-99.99,meteohub,2013-05-20 10:49:00,
2013-05-20 04:54:00,42.3,25.5,17.73,NW,317,8.0,16.0,29,-99.99,,,-99.99,meteohub,2013-05-20 10:54:00,
2013-05-20 04:59:00,42.3,25.3,17.73,West,262,6.0,11.0,29,-99.99,,,-99.99,meteohub,2013-05-20 10:59:00,
2013-05-20 05:04:00,42.3,25.3,17.73,WNW,295,10.0,11.0,29,-99.99,,,-99.99,meteohub,2013-05-20 11:04:00,
2013-05-20 05:10:00,42.3,25.2,17.73,NW,321,6.0,15.0,29,-99.99,,,-99.99,meteohub,2013-05-20 11:10:00,
2013-05-20 05:15:00,42.1,25.2,17.73,WNW,301,5.0,15.0,29,-99.99,,,-99.99,meteohub,2013-05-20 11:15:00,
2013-05-20 05:20:00,41.9,25.7,17.73,NW,307,4.0,11.0,29,-99.99,,,-99.99,meteohub,2013-05-20 11:20:00,
2013-05-20 05:25:00,41.5,25.9,17.73,WNW,297,0.0,11.0,29,-99.99,,,-99.99,meteohub,2013-05-20 11:25:00,
2013-05-20 05:31:00,41.0,25.9,17.73,WNW,297,0.0,11.0,29,-99.99,,,-99.99,meteohub,2013-05-20 11:31:00,
2013-05-20 05:36:00,40.8,25.7,17.73,WNW,297,0.0,8.0,29,-99.99,,,-99.99,meteohub,2013-05-20 11:36:00,
2013-05-20 05:41:00,40.6,24.8,17.73,West,278,4.0,8.0,28,-99.99,,,-99.99,meteohub,2013-05-20 11:41:00,
2013-05-20 05:46:00,41.0,24.6,17.73,WNW,293,7.0,7.0,28,-99.99,,,-99.99,meteohub,2013-05-20 11:46:00,
2013-05-20 05:52:00,41.0,24.6,17.73,NW,310,3.0,6.0,28,-99.99,,,-99.99,meteohub,2013-05-20 11:52:00,
2013-05-20 05:57:00,41.0,24.6,17.73,WNW,282,4.0,8.0,28,-99.99,,,-99.99,meteohub,2013-05-20 11:57:00,
2013-05-20 06:02:00,41.2,24.6,17.73,NW,309,4.0,8.0,28,-99.99,,,-99.99,meteohub,2013-05-20 12:02:00,
2013-05-20 06:07:00,41.4,24.6,17.73,WNW,298,3.0,8.0,28,-99.99,,,-99.99,meteohub,2013-05-20 12:07:00,
2013-05-20 06:12:00,41.4,24.6,17.73,NW,315,6.0,6.0,28,-99.99,,,-99.99,meteohub,2013-05-20 12:12:00,
2013-05-20 06:17:00,41.7,24.4,17.73,WNW,300,4.0,6.0,28,-99.99,,,-99.99,meteohub,2013-05-20 12:17:00,
2013-05-20 06:22:00,41.7,24.4,17.73,NW,304,3.0,6.0,28,-99.99,,,-99.99,meteohub,2013-05-20 12:22:00,
2013-05-20 06:27:00,41.7,24.4,17.73,WNW,290,0.0,6.0,28,-99.99,,,-99.99,meteohub,2013-05-20 12:27:00,
2013-05-20 06:32:00,41.5,24.4,17.73,WNW,289,0.0,6.0,28,-99.99,,,-99.99,meteohub,2013-05-20 12:32:00,
2013-05-20 06:37:00,41.4,24.4,17.73,WSW,241,0.0,6.0,28,-99.99,,,-99.99,meteohub,2013-05-20 12:37:00,
2013-05-20 06:42:00,41.7,24.4,17.73,South,190,0.0,3.0,28,-99.99,,,-99.99,meteohub,2013-05-20 12:42:00,
2013-05-20 06:47:00,41.9,25.0,17.73,South,190,0.0,3.0,29,-99.99,,,-99.99,meteohub,2013-05-20 12:47:00,
2013-05-20 06:52:00,41.9,25.0,17.73,South,190,0.0,0.0,29,-99.99,,,-99.99,meteohub,2013-05-20 12:52:00,
2013-05-20 06:58:00,42.1,25.0,17.73,South,190,0.0,0.0,29,-99.99,,,-99.99,meteohub,2013-05-20 12:58:00,
2013-05-20 07:03:00,42.1,25.0,17.73,South,189,0.0,0.0,29,-99.99,,,-99.99,meteohub,2013-05-20 13:03:00,
2013-05-20 07:08:00,42.8,24.8,17.73,SW,221,0.0,0.0,28,-99.99,,,-99.99,meteohub,2013-05-20 13:08:00,
2013-05-20 07:13:00,43.5,25.0,17.73,NE,56,4.0,0.0,28,-99.99,,,-99.99,meteohub,2013-05-20 13:13:00,
2013-05-20 07:19:00,43.9,25.0,17.73,NE,50,2.0,5.0,28,-99.99,,,-99.99,meteohub,2013-05-20 13:19:00,
2013-05-20 07:24:00,44.2,25.0,17.73,SE,143,0.0,5.0,28,-99.99,,,-99.99,meteohub,2013-05-20 13:24:00,
2013-05-20 07:29:00,44.2,25.0,17.73,SSE,164,0.0,5.0,28,-99.99,,,-99.99,meteohub,2013-05-20 13:29:00,
2013-05-20 07:35:00,44.2,25.0,17.73,SSE,164,0.0,5.0,28,-99.99,,,-99.99,meteohub,2013-05-20 13:35:00,
2013-05-20 07:40:00,44.2,24.8,17.73,SSE,164,0.0,0.0,28,-99.99,,,-99.99,meteohub,2013-05-20 13:40:00,
2013-05-20 07:45:00,44.8,24.8,17.73,ENE,70,0.0,0.0,28,-99.99,,,-99.99,meteohub,2013-05-20 13:45:00,
2013-05-20 07:50:00,45.1,24.8,17.73,ENE,73,3.0,4.0,28,-99.99,,,-99.99,meteohub,2013-05-20 13:50:00,
2013-05-20 07:55:00,45.1,24.8,17.73,ENE,72,3.0,4.0,28,-99.99,,,-99.99,meteohub,2013-05-20 13:55:00,
2013-05-20 08:01:00,45.1,24.8,17.73,NE,54,4.0,4.0,28,-99.99,,,-99.99,meteohub,2013-05-20 14:01:00,
2013-05-20 08:06:00,45.5,24.8,17.73,NE,54,4.0,5.0,28,-99.99,,,-99.99,meteohub,2013-05-20 14:06:00,
2013-05-20 08:11:00,46.2,24.8,17.73,North,350,2.0,5.0,28,-99.99,,,-99.99,meteohub,2013-05-20 14:11:00,
2013-05-20 08:16:00,46.8,24.8,17.73,NNW,335,0.0,5.0,28,-99.99,,,-99.99,meteohub,2013-05-20 14:16:00,
2013-05-20 08:22:00,46.8,24.8,17.73,West,276,8.0,8.0,28,-99.99,,,-99.99,meteohub,2013-05-20 14:22:00,
2013-05-20 08:27:00,47.5,24.8,17.73,West,281,5.0,8.0,28,-99.99,,,-99.99,meteohub,2013-05-20 14:27:00,
2013-05-20 08:32:00,47.8,24.8,17.73,NW,308,6.0,8.0,28,-99.99,,,-99.99,meteohub,2013-05-20 14:32:00,
2013-05-20 08:37:00,48.4,24.8,17.73,WNW,294,9.0,9.0,28,-99.99,,,-99.99,meteohub,2013-05-20 14:37:00,
2013-05-20 08:42:00,48.2,24.8,17.73,WSW,253,9.0,10.0,28,-99.99,,,-99.99,meteohub,2013-05-20 14:42:00,
2013-05-20 08:48:00,48.4,24.8,17.73,WNW,292,7.0,10.0,28,-99.99,,,-99.99,meteohub,2013-05-20 14:48:00,
2013-05-20 08:53:00,48.4,24.8,17.73,WNW,296,3.0,10.0,28,-99.99,,,-99.99,meteohub,2013-05-20 14:53:00,
2013-05-20 08:58:00,48.4,24.8,17.73,WNW,302,5.0,10.0,28,-99.99,,,-99.99,meteohub,2013-05-20 14:58:00,
2013-05-20 09:03:00,48.2,24.8,17.73,WNW,298,5.0,8.0,28,-99.99,,,-99.99,meteohub,2013-05-20 15:03:00,
2013-05-20 09:09:00,48.6,24.8,17.73,WNW,292,8.0,8.0,28,-99.99,,,-99.99,meteohub,2013-05-20 15:09:00,
2013-05-20 09:14:00,48.9,24.8,17.73,WNW,298,6.0,9.0,28,-99.99,,,-99.99,meteohub,2013-05-20 15:14:00,
2013-05-20 09:19:00,49.1,24.8,17.73,NW,308,6.0,9.0,28,-99.99,,,-99.99,meteohub,2013-05-20 15:19:00,
2013-05-20 09:24:00,49.1,24.8,17.73,NNW,331,8.0,13.0,28,-99.99,,,-99.99,meteohub,2013-05-20 15:24:00,
2013-05-20 09:29:00,50.4,24.8,17.73,NW,310,5.0,13.0,28,-99.99,,,-99.99,meteohub,2013-05-20 15:29:00,
2013-05-20 09:35:00,52.2,24.8,17.73,WNW,302,3.0,13.0,28,-99.99,,,-99.99,meteohub,2013-05-20 15:35:00,
2013-05-20 09:40:00,53.4,24.8,17.73,NW,310,8.0,9.0,28,-99.99,,,-99.99,meteohub,2013-05-20 15:40:00,
2013-05-20 09:45:00,53.6,24.8,17.73,NW,320,9.0,9.0,28,-99.99,,,-99.99,meteohub,2013-05-20 15:45:00,
2013-05-20 09:50:00,52.9,25.7,17.73,WNW,284,11.0,11.0,29,-99.99,,,-99.99,meteohub,2013-05-20 15:50:00,
2013-05-20 09:56:00,51.8,25.7,17.73,WSW,258,13.0,19.0,29,-99.99,,,-99.99,meteohub,2013-05-20 15:56:00,
2013-05-20 10:01:00,52.0,25.9,17.73,West,281,9.0,19.0,29,-99.99,,,-99.99,meteohub,2013-05-20 16:01:00,
2013-05-20 10:06:00,52.7,25.9,17.73,WNW,288,5.0,19.0,29,-99.99,,,-99.99,meteohub,2013-05-20 16:06:00,
2013-05-20 10:11:00,54.0,25.9,17.73,NW,320,14.0,19.0,29,-99.99,,,-99.99,meteohub,2013-05-20 16:11:00,
2013-05-20 10:16:00,54.7,25.9,17.73,NW,317,6.0,16.0,29,-99.99,,,-99.99,meteohub,2013-05-20 16:16:00,
2013-05-20 10:22:00,54.9,25.9,17.73,NW,315,9.0,16.0,29,-99.99,,,-99.99,meteohub,2013-05-20 16:22:00,
2013-05-20 10:27:00,55.0,25.9,17.73,WNW,296,10.0,14.0,29,-99.99,,,-99.99,meteohub,2013-05-20 16:27:00,
2013-05-20 10:32:00,55.0,25.9,17.73,WNW,295,13.0,14.0,29,-99.99,,,-99.99,meteohub,2013-05-20 16:32:00,
2013-05-20 10:37:00,54.5,25.9,17.73,WNW,291,8.0,15.0,29,-99.99,,,-99.99,meteohub,2013-05-20 16:37:00,
2013-05-20 10:42:00,54.1,25.9,17.73,West,270,4.0,15.0,29,-99.99,,,-99.99,meteohub,2013-05-20 16:42:00,
2013-05-20 10:47:00,54.0,25.9,17.73,NW,321,6.0,13.0,29,-99.99,,,-99.99,meteohub,2013-05-20 16:47:00,
2013-05-20 10:52:00,54.0,25.9,17.73,WNW,288,9.0,13.0,29,-99.99,,,-99.99,meteohub,2013-05-20 16:52:00,
2013-05-20 10:58:00,54.3,25.9,17.73,WNW,284,6.0,10.0,29,-99.99,,,-99.99,meteohub,2013-05-20 16:58:00,
2013-05-20 11:03:00,55.6,25.9,17.73,NW,304,11.0,13.0,29,-99.99,,,-99.99,meteohub,2013-05-20 17:03:00,
2013-05-20 11:08:00,57.2,26.8,17.73,NW,306,13.0,13.0,30,-99.99,,,-99.99,meteohub,2013-05-20 17:08:00,
2013-05-20 11:13:00,57.6,26.8,17.73,WNW,296,11.0,17.0,30,-99.99,,,-99.99,meteohub,2013-05-20 17:13:00,
2013-05-20 11:18:00,56.5,26.8,17.73,WNW,301,8.0,17.0,30,-99.99,,,-99.99,meteohub,2013-05-20 17:18:00,
2013-05-20 11:24:00,56.8,26.8,17.73,NW,306,10.0,17.0,30,-99.99,,,-99.99,meteohub,2013-05-20 17:24:00,
2013-05-20 11:29:00,57.9,26.8,17.73,WNW,297,13.0,17.0,30,-99.99,,,-99.99,meteohub,2013-05-20 17:29:00,
2013-05-20 11:34:00,57.7,26.8,17.73,NW,306,9.0,17.0,30,-99.99,,,-99.99,meteohub,2013-05-20 17:34:00,
2013-05-20 11:39:00,56.7,27.7,17.73,NW,306,15.0,15.0,31,-99.99,,,-99.99,meteohub,2013-05-20 17:39:00,
2013-05-20 11:45:00,55.6,27.7,17.73,NW,313,13.0,17.0,31,-99.99,,,-99.99,meteohub,2013-05-20 17:45:00,
2013-05-20 11:50:00,55.8,27.7,17.73,NW,309,10.0,17.0,31,-99.99,,,-99.99,meteohub,2013-05-20 17:50:00,
2013-05-20 11:55:00,57.2,27.7,17.73,NW,307,8.0,17.0,31,-99.99,,,-99.99,meteohub,2013-05-20 17:55:00,
2013-05-20 12:00:00,58.3,27.7,17.73,WNW,295,5.0,17.0,31,-99.99,,,-99.99,meteohub,2013-05-20 18:00:00,
2013-05-20 12:05:00,58.3,26.8,17.73,WNW,290,8.0,14.0,30,-99.99,,,-99.99,meteohub,2013-05-20 18:05:00,
2013-05-20 12:11:00,57.9,26.8,17.73,NW,322,8.0,14.0,30,-99.99,,,-99.99,meteohub,2013-05-20 18:11:00,
2013-05-20 12:16:00,57.7,26.8,17.73,West,278,8.0,12.0,30,-99.99,,,-99.99,meteohub,2013-05-20 18:16:00,
2013-05-20 12:21:00,57.4,26.8,17.73,WNW,289,8.0,12.0,30,-99.99,,,-99.99,meteohub,2013-05-20 18:21:00,
2013-05-20 12:26:00,57.4,27.0,17.73,WNW,301,8.0,13.0,30,-99.99,,,-99.99,meteohub,2013-05-20 18:26:00,
2013-05-20 12:31:00,57.9,27.0,17.73,WNW,297,6.0,13.0,30,-99.99,,,-99.99,meteohub,2013-05-20 18:31:00,
2013-05-20 12:37:00,59.0,27.0,17.73,West,272,8.0,12.0,30,-99.99,,,-99.99,meteohub,2013-05-20 18:37:00,
2013-05-20 12:42:00,60.3,27.0,17.73,SSW,208,5.0,12.0,30,-99.99,,,-99.99,meteohub,2013-05-20 18:42:00,
2013-05-20 12:47:00,59.4,27.0,17.73,WNW,289,8.0,11.0,30,-99.99,,,-99.99,meteohub,2013-05-20 18:47:00,
2013-05-20 12:52:00,58.6,27.9,17.73,NW,315,8.0,11.0,31,-99.99,,,-99.99,meteohub,2013-05-20 18:52:00,
2013-05-20 12:57:00,57.9,27.9,17.73,West,278,5.0,11.0,31,-99.99,,,-99.99,meteohub,2013-05-20 18:57:00,
2013-05-20 13:02:00,58.1,27.0,17.73,North,357,4.0,11.0,30,-99.99,,,-99.99,meteohub,2013-05-20 19:02:00,
2013-05-20 13:07:00,58.1,27.0,17.73,West,261,5.0,13.0,30,-99.99,,,-99.99,meteohub,2013-05-20 19:07:00,
2013-05-20 13:12:00,57.7,27.0,17.73,NW,306,6.0,13.0,30,-99.99,,,-99.99,meteohub,2013-05-20 19:12:00,
2013-05-20 13:17:00,57.0,27.0,17.73,WNW,303,8.0,10.0,30,-99.99,,,-99.99,meteohub,2013-05-20 19:17:00,
2013-05-20 13:22:00,57.0,27.0,17.73,West,264,4.0,10.0,30,-99.99,,,-99.99,meteohub,2013-05-20 19:22:00,
2013-05-20 13:27:00,57.0,27.0,17.73,WNW,295,5.0,10.0,30,-99.99,,,-99.99,meteohub,2013-05-20 19:27:00,
2013-05-20 13:33:00,57.2,27.0,17.73,NW,310,9.0,9.0,30,-99.99,,,-99.99,meteohub,2013-05-20 19:33:00,
2013-05-20 13:38:00,56.8,27.0,17.73,West,279,8.0,8.0,30,-99.99,,,-99.99,meteohub,2013-05-20 19:38:00,
2013-05-20 13:43:00,57.7,27.1,17.73,WNW,295,6.0,11.0,30,-99.99,,,-99.99,meteohub,2013-05-20 19:43:00,
2013-05-20 13:48:00,59.4,27.1,17.73,WNW,293,8.0,11.0,30,-99.99,,,-99.99,meteohub,2013-05-20 19:48:00,
2013-05-20 13:53:00,59.4,27.1,17.73,NW,319,4.0,14.0,30,-99.99,,,-99.99,meteohub,2013-05-20 19:53:00,
2013-05-20 13:59:00,58.8,27.1,17.73,NNE,15,7.0,14.0,30,-99.99,,,-99.99,meteohub,2013-05-20 19:59:00,
2013-05-20 14:04:00,58.6,27.9,17.73,WNW,288,10.0,14.0,31,-99.99,,,-99.99,meteohub,2013-05-20 20:04:00,
2013-05-20 14:09:00,59.2,27.9,17.73,NW,308,6.0,14.0,31,-99.99,,,-99.99,meteohub,2013-05-20 20:09:00,
2013-05-20 14:14:00,59.2,27.9,17.73,NW,314,10.0,12.0,31,-99.99,,,-99.99,meteohub,2013-05-20 20:14:00,
2013-05-20 14:19:00,59.4,27.9,17.73,WNW,298,6.0,12.0,31,-99.99,,,-99.99,meteohub,2013-05-20 20:19:00,
2013-05-20 14:25:00,60.3,27.1,17.73,NNW,331,13.0,15.0,30,-99.99,,,-99.99,meteohub,2013-05-20 20:25:00,
2013-05-20 14:30:00,61.0,27.9,17.73,WNW,283,8.0,15.0,31,-99.99,,,-99.99,meteohub,2013-05-20 20:30:00,
2013-05-20 14:35:00,61.7,27.9,17.73,WNW,302,5.0,15.0,31,-99.99,,,-99.99,meteohub,2013-05-20 20:35:00,
2013-05-20 14:40:00,62.6,27.9,17.73,NW,309,8.0,15.0,31,-99.99,,,-99.99,meteohub,2013-05-20 20:40:00,
2013-05-20 14:45:00,62.6,27.9,17.73,NW,313,9.0,13.0,31,-99.99,,,-99.99,meteohub,2013-05-20 20:45:00,
2013-05-20 14:51:00,62.4,27.9,17.73,WNW,303,10.0,13.0,31,-99.99,,,-99.99,meteohub,2013-05-20 20:51:00,
2013-05-20 14:56:00,62.6,27.9,17.73,West,277,8.0,18.0,31,-99.99,,,-99.99,meteohub,2013-05-20 20:56:00,
2013-05-20 15:01:00,63.7,27.9,17.73,WNW,285,6.0,18.0,31,-99.99,,,-99.99,meteohub,2013-05-20 21:01:00,
2013-05-20 15:06:00,63.9,27.3,17.73,WNW,301,6.0,18.0,30,-99.99,,,-99.99,meteohub,2013-05-20 21:06:00,
2013-05-20 15:11:00,63.9,27.3,17.73,NW,313,9.0,18.0,30,-99.99,,,-99.99,meteohub,2013-05-20 21:11:00,
2013-05-20 15:17:00,64.8,27.3,17.73,WNW,285,8.0,13.0,30,-99.99,,,-99.99,meteohub,2013-05-20 21:17:00,
2013-05-20 15:22:00,64.6,27.3,17.73,WNW,286,8.0,13.0,30,-99.99,,,-99.99,meteohub,2013-05-20 21:22:00,
2013-05-20 15:27:00,64.6,28.0,17.73,WNW,288,8.0,15.0,31,-99.99,,,-99.99,meteohub,2013-05-20 21:27:00,
2013-05-20 15:32:00,64.8,28.0,17.73,WNW,287,8.0,15.0,31,-99.99,,,-99.99,meteohub,2013-05-20 21:32:00,
2013-05-20 15:37:00,65.5,28.2,17.73,NNW,328,8.0,15.0,31,-99.99,,,-99.99,meteohub,2013-05-20 21:37:00,
2013-05-20 15:42:00,64.0,28.2,17.73,WNW,298,10.0,15.0,31,-99.99,,,-99.99,meteohub,2013-05-20 21:42:00,
2013-05-20 15:47:00,64.4,28.2,17.73,NW,311,11.0,15.0,31,-99.99,,,-99.99,meteohub,2013-05-20 21:47:00,
2013-05-20 15:52:00,63.9,28.2,17.73,NW,306,12.0,15.0,31,-99.99,,,-99.99,meteohub,2013-05-20 21:52:00,
2013-05-20 15:57:00,64.6,28.2,17.73,WNW,302,6.0,15.0,31,-99.99,,,-99.99,meteohub,2013-05-20 21:57:00,
2013-05-20 16:02:00,65.3,28.2,17.73,NW,304,7.0,15.0,31,-99.99,,,-99.99,meteohub,2013-05-20 22:02:00,
2013-05-20 16:07:00,65.8,28.2,17.73,NW,310,8.0,12.0,31,-99.99,,,-99.99,meteohub,2013-05-20 22:07:00,
2013-05-20 16:12:00,65.1,28.2,17.73,NW,309,12.0,12.0,31,-99.99,,,-99.99,meteohub,2013-05-20 22:12:00,
2013-05-20 16:17:00,64.6,28.4,17.73,NNW,331,6.0,13.0,31,-99.99,,,-99.99,meteohub,2013-05-20 22:17:00,
2013-05-20 16:22:00,65.5,28.4,17.73,NW,305,8.0,13.0,31,-99.99,,,-99.99,meteohub,2013-05-20 22:22:00,
2013-05-20 16:27:00,66.0,28.4,17.73,NW,315,12.0,13.0,31,-99.99,,,-99.99,meteohub,2013-05-20 22:27:00,
2013-05-20 16:32:00,65.8,28.4,17.73,West,279,10.0,13.0,31,-99.99,,,-99.99,meteohub,2013-05-20 22:32:00,
2013-05-20 16:37:00,65.8,28.6,17.73,West,267,11.0,13.0,31,-99.99,,,-99.99,meteohub,2013-05-20 22:37:00,
2013-05-20 16:42:00,65.8,28.6,17.73,NW,304,8.0,13.0,31,-99.99,,,-99.99,meteohub,2013-05-20 22:42:00,
2013-05-20 16:47:00,66.0,28.6,17.73,West,280,6.0,13.0,31,-99.99,,,-99.99,meteohub,2013-05-20 22:47:00,
2013-05-20 16:52:00,65.7,28.6,17.73,NW,306,8.0,13.0,31,-99.99,,,-99.99,meteohub,2013-05-20 22:52:00,
2013-05-20 16:57:00,65.7,28.6,17.73,WNW,282,6.0,13.0,31,-99.99,,,-99.99,meteohub,2013-05-20 22:57:00,
2013-05-20 17:02:00,65.8,28.6,17.73,NNW,327,8.0,13.0,31,-99.99,,,-99.99,meteohub,2013-05-20 23:02:00,
2013-05-20 17:07:00,65.5,28.6,17.73,WNW,302,9.0,13.0,31,-99.99,,,-99.99,meteohub,2013-05-20 23:07:00,
2013-05-20 17:12:00,65.3,28.6,17.73,WNW,303,5.0,13.0,31,-99.99,,,-99.99,meteohub,2013-05-20 23:12:00,
2013-05-20 17:17:00,65.7,28.6,17.73,WNW,303,10.0,11.0,31,-99.99,,,-99.99,meteohub,2013-05-20 23:17:00,
2013-05-20 17:22:00,66.0,28.8,17.73,WNW,299,11.0,11.0,31,-99.99,,,-99.99,meteohub,2013-05-20 23:22:00,
2013-05-20 17:27:00,65.7,28.8,17.73,WNW,293,5.0,11.0,31,-99.99,,,-99.99,meteohub,2013-05-20 23:27:00,
2013-05-20 17:33:00,66.0,28.8,17.73,West,277,9.0,11.0,31,-99.99,,,-99.99,meteohub,2013-05-20 23:33:00,
2013-05-20 17:38:00,66.4,28.8,17.73,NW,315,8.0,13.0,31,-99.99,,,-99.99,meteohub,2013-05-20 23:38:00,
2013-05-20 17:43:00,66.4,28.8,17.73,WNW,283,3.0,13.0,31,-99.99,,,-99.99,meteohub,2013-05-20 23:43:00,
2013-05-20 17:48:00,66.2,28.8,17.73,WNW,283,0.0,11.0,31,-99.99,,,-99.99,meteohub,2013-05-20 23:48:00,
2013-05-20 17:53:00,66.4,28.9,17.73,NW,310,3.0,9.0,31,-99.99,,,-99.99,meteohub,2013-05-20 23:53:00,
2013-05-20 17:59:00,64.8,28.9,17.73,West,270,5.0,9.0,31,-99.99,,,-99.99,meteohub,2013-05-20 23:59:00,
2013-05-20 18:04:00,62.8,28.9,17.73,NW,305,9.0,11.0,31,-99.99,,,-99.99,meteohub,2013-05-21 00:04:00,
2013-05-20 18:09:00,63.7,28.9,17.73,NW,321,6.0,11.0,31,-99.99,,,-99.99,meteohub,2013-05-21 00:09:00,
2013-05-20 18:14:00,64.4,28.9,17.73,West,278,3.0,11.0,31,-99.99,,,-99.99,meteohub,2013-05-21 00:14:00,
2013-05-20 18:19:00,64.6,28.9,17.73,West,278,5.0,9.0,31,-99.99,,,-99.99,meteohub,2013-05-21 00:19:00,
2013-05-20 18:25:00,64.8,28.9,17.73,West,271,4.0,9.0,31,-99.99,,,-99.99,meteohub,2013-05-21 00:25:00,
2013-05-20 18:30:00,65.5,28.9,17.73,WNW,299,4.0,9.0,31,-99.99,,,-99.99,meteohub,2013-05-21 00:30:00,
2013-05-20 18:35:00,65.7,28.9,17.73,NW,310,6.0,6.0,31,-99.99,,,-99.99,meteohub,2013-05-21 00:35:00,
2013-05-20 18:40:00,65.8,28.9,17.73,WNW,293,8.0,8.0,31,-99.99,,,-99.99,meteohub,2013-05-21 00:40:00,
2013-05-20 18:46:00,64.8,28.9,17.73,NW,308,12.0,12.0,31,-99.99,,,-99.99,meteohub,2013-05-21 00:46:00,
2013-05-20 18:51:00,64.0,28.9,17.73,NW,309,8.0,15.0,31,-99.99,,,-99.99,meteohub,2013-05-21 00:51:00,
2013-05-20 18:56:00,63.1,28.9,17.73,NW,318,6.0,15.0,31,-99.99,,,-99.99,meteohub,2013-05-21 00:56:00,
2013-05-20 19:01:00,61.7,28.9,17.73,WNW,296,6.0,15.0,31,-99.99,,,-99.99,meteohub,2013-05-21 01:01:00,
2013-05-20 19:06:00,60.6,28.9,17.73,WNW,288,4.0,11.0,31,-99.99,,,-99.99,meteohub,2013-05-21 01:06:00,
2013-05-20 19:12:00,60.4,28.9,17.73,WNW,283,4.0,11.0,31,-99.99,,,-99.99,meteohub,2013-05-21 01:12:00,
2013-05-20 19:17:00,60.3,28.9,17.73,WNW,294,3.0,8.0,31,-99.99,,,-99.99,meteohub,2013-05-21 01:17:00,
2013-05-20 19:22:00,59.7,28.9,17.73,WNW,298,3.0,8.0,31,-99.99,,,-99.99,meteohub,2013-05-21 01:22:00,
2013-05-20 19:27:00,59.2,28.9,17.73,NW,307,4.0,5.0,31,-99.99,,,-99.99,meteohub,2013-05-21 01:27:00,
2013-05-20 19:32:00,58.3,28.9,17.73,NW,309,4.0,5.0,31,-99.99,,,-99.99,meteohub,2013-05-21 01:32:00,
2013-05-20 19:37:00,57.0,29.1,17.73,West,278,0.0,5.0,31,-99.99,,,-99.99,meteohub,2013-05-21 01:37:00,
2013-05-20 19:42:00,55.9,28.9,17.73,WNW,298,3.0,5.0,31,-99.99,,,-99.99,meteohub,2013-05-21 01:42:00,
2013-05-20 19:47:00,55.6,29.1,17.73,WNW,301,5.0,5.0,31,-99.99,,,-99.99,meteohub,2013-05-21 01:47:00,
2013-05-20 19:52:00,55.6,29.3,17.73,NW,306,3.0,5.0,31,-99.99,,,-99.99,meteohub,2013-05-21 01:52:00,
2013-05-20 19:57:00,54.7,29.7,17.73,WNW,284,4.0,5.0,30,-99.99,,,-99.99,meteohub,2013-05-21 01:57:00,
2013-05-20 20:02:00,54.5,30.6,17.73,WSW,245,3.0,5.0,30,-99.99,,,-99.99,meteohub,2013-05-21 02:02:00,
2013-05-20 20:07:00,53.4,30.7,17.73,NNE,25,3.0,5.0,29,-99.99,,,-99.99,meteohub,2013-05-21 02:07:00,
2013-05-20 20:12:00,53.1,30.6,17.73,ENE,63,8.0,8.0,28,-99.99,,,-99.99,meteohub,2013-05-21 02:12:00,
2013-05-20 20:17:00,52.7,30.7,17.73,NNE,23,4.0,8.0,28,-99.99,,,-99.99,meteohub,2013-05-21 02:17:00,
2013-05-20 20:22:00,52.5,30.4,17.73,WSW,238,6.0,8.0,28,-99.99,,,-99.99,meteohub,2013-05-21 02:22:00,
2013-05-20 20:27:00,52.5,30.4,17.73,WNW,284,4.0,11.0,28,-99.99,,,-99.99,meteohub,2013-05-21 02:27:00,
2013-05-20 20:32:00,52.2,31.3,17.73,West,262,4.0,11.0,28,-99.99,,,-99.99,meteohub,2013-05-21 02:32:00,
2013-05-20 20:37:00,51.8,31.3,17.73,NNW,331,3.0,11.0,28,-99.99,,,-99.99,meteohub,2013-05-21 02:37:00,
2013-05-20 20:42:00,51.3,31.1,17.73,North,353,3.0,11.0,28,-99.99,,,-99.99,meteohub,2013-05-21 02:42:00,
2013-05-20 20:47:00,50.9,32.0,17.73,North,350,3.0,5.0,29,-99.99,,,-99.99,meteohub,2013-05-21 02:47:00,
2013-05-20 20:53:00,50.4,32.9,17.73,NNW,344,5.0,5.0,29,-99.99,,,-99.99,meteohub,2013-05-21 02:53:00,
2013-05-20 20:58:00,50.0,32.5,17.73,WSW,248,4.0,6.0,28,-99.99,,,-99.99,meteohub,2013-05-21 02:58:00,
2013-05-20 21:03:00,49.6,33.4,17.73,NW,324,3.0,6.0,28,-99.99,,,-99.99,meteohub,2013-05-21 03:03:00,
2013-05-20 21:08:00,49.3,32.9,17.73,ENE,74,3.0,6.0,27,-99.99,,,-99.99,meteohub,2013-05-21 03:08:00,
2013-05-20 21:13:00,48.7,32.7,17.73,East,85,3.0,5.0,27,-99.99,,,-99.99,meteohub,2013-05-21 03:13:00,
2013-05-20 21:18:00,48.6,32.4,17.73,ENE,64,3.0,4.0,27,-99.99,,,-99.99,meteohub,2013-05-21 03:18:00,
2013-05-20 21:24:00,48.4,33.4,17.73,ENE,67,4.0,5.0,28,-99.99,,,-99.99,meteohub,2013-05-21 03:24:00,
2013-05-20 21:29:00,48.2,33.3,17.73,NNW,328,2.0,5.0,27,-99.99,,,-99.99,meteohub,2013-05-21 03:29:00,
2013-05-20 21:34:00,48.2,33.1,17.73,ENE,59,3.0,5.0,27,-99.99,,,-99.99,meteohub,2013-05-21 03:34:00,
2013-05-20 21:39:00,48.2,32.9,17.73,NE,41,6.0,6.0,27,-99.99,,,-99.99,meteohub,2013-05-21 03:39:00,
2013-05-20 21:45:00,48.4,33.4,17.73,NE,51,7.0,7.0,28,-99.99,,,-99.99,meteohub,2013-05-21 03:45:00,
2013-05-20 21:50:00,48.2,33.3,17.73,ENE,78,2.0,6.0,27,-99.99,,,-99.99,meteohub,2013-05-21 03:50:00,
2013-05-20 21:55:00,48.0,34.5,17.73,NE,40,6.0,7.0,28,-99.99,,,-99.99,meteohub,2013-05-21 03:55:00,
2013-05-20 22:00:00,47.8,33.4,17.73,NE,36,5.0,7.0,27,-99.99,,,-99.99,meteohub,2013-05-21 04:00:00,
2013-05-20 22:01:00,47.7,33.3,17.73,NE,46,6.0,7.0,27,-99.99,,,-99.99,meteohub,2013-05-21 04:01:00,
2013-05-20 22:02:00,47.7,33.3,17.73,NE,44,5.0,7.0,27,-99.99,,,-99.99,meteohub,2013-05-21 04:02:00,
2013-05-20 22:04:00,47.5,34.0,17.73,ENE,62,4.0,6.0,28,-99.99,,,-99.99,meteohub,2013-05-21 04:04:00,
2013-05-20 22:05:00,47.5,34.0,17.73,NE,45,4.0,6.0,28,-99.99,,,-99.99,meteohub,2013-05-21 04:05:00,
2013-05-20 22:10:00,47.3,33.8,17.73,NE,37,6.0,6.0,28,-99.99,,,-99.99,meteohub,2013-05-21 04:10:00,
2013-05-20 22:15:00,47.1,33.6,17.73,NE,55,3.0,6.0,28,-99.99,,,-99.99,meteohub,2013-05-21 04:15:00,
2013-05-20 22:21:00,47.1,33.4,17.73,WNW,297,3.0,6.0,28,-99.99,,,-99.99,meteohub,2013-05-21 04:21:00,
2013-05-20 22:26:00,46.8,33.4,17.73,NE,36,4.0,6.0,28,-99.99,,,-99.99,meteohub,2013-05-21 04:26:00,
2013-05-20 22:31:00,46.0,33.4,17.73,NW,320,2.0,6.0,28,-99.99,,,-99.99,meteohub,2013-05-21 04:31:00,
2013-05-20 22:37:00,45.9,33.4,17.73,North,9,3.0,4.0,28,-99.99,,,-99.99,meteohub,2013-05-21 04:37:00,
2013-05-20 22:42:00,45.3,33.3,17.73,SSW,205,0.0,4.0,28,-99.99,,,-99.99,meteohub,2013-05-21 04:42:00,
2013-05-20 22:47:00,45.1,34.2,17.73,NNE,25,0.0,4.0,29,-99.99,,,-99.99,meteohub,2013-05-21 04:47:00,
2013-05-20 22:52:00,44.8,34.7,17.73,NNW,327,0.0,4.0,29,-99.99,,,-99.99,meteohub,2013-05-21 04:52:00,
2013-05-20 22:57:00,43.7,34.5,17.73,NNW,327,0.0,4.0,28,-99.99,,,-99.99,meteohub,2013-05-21 04:57:00,
2013-05-20 23:02:00,42.8,34.5,17.73,NNW,327,0.0,4.0,28,-99.99,,,-99.99,meteohub,2013-05-21 05:02:00,
2013-05-20 23:07:00,42.8,34.3,17.73,NNW,341,0.0,0.0,28,-99.99,,,-99.99,meteohub,2013-05-21 05:07:00,
2013-05-20 23:12:00,43.0,34.2,17.73,NW,326,0.0,0.0,28,-99.99,,,-99.99,meteohub,2013-05-21 05:12:00,
2013-05-20 23:17:00,43.3,35.1,17.73,NW,326,0.0,0.0,29,-99.99,,,-99.99,meteohub,2013-05-21 05:17:00,
2013-05-20 23:22:00,43.5,35.8,17.73,NW,326,0.0,0.0,29,-99.99,,,-99.99,meteohub,2013-05-21 05:22:00,
2013-05-20 23:27:00,43.2,35.8,17.73,NW,326,0.0,0.0,29,-99.99,,,-99.99,meteohub,2013-05-21 05:27:00,
2013-05-20 23:33:00,43.0,34.7,17.73,NW,326,0.0,0.0,28,-99.99,,,-99.99,meteohub,2013-05-21 05:33:00,
2013-05-20 23:38:00,42.6,34.5,17.73,NW,326,0.0,0.0,28,-99.99,,,-99.99,meteohub,2013-05-21 05:38:00,
2013-05-20 23:43:00,42.3,34.3,17.73,WNW,282,0.0,0.0,28,-99.99,,,-99.99,meteohub,2013-05-21 05:43:00,
2013-05-20 23:48:00,41.7,34.0,17.73,WSW,245,0.0,0.0,28,-99.99,,,-99.99,meteohub,2013-05-21 05:48:00,
2013-05-20 23:53:00,40.6,33.8,17.73,WSW,245,0.0,0.0,28,-99.99,,,-99.99,meteohub,2013-05-21 05:53:00,
2013-05-20 23:58:00,40.3,33.6,17.73,WSW,245,0.0,0.0,28,-99.99,,,-99.99,meteohub,2013-05-21 05:58:00,